Location: Drebach
(50.6670°N, 13.0330°E)
Time: 12:18:41
(UTC+02:00)

ISS - Visible Passes

Search period start: 13 May 2021 00:00
Search period end: 23 May 2021 00:00
Orbit: 417 x 422 km, 51.6° (Epoch: 13 May)

Date Brightness Start Highest point End Pass type
(mag) Time Alt. Az. Time Alt. Az. Time Alt. Az.
13 May -1.4 00:32:07 16° E 00:32:07 16° E 00:32:52 10° ENE visible
13 May -3.6 02:05:02 34° WNW 02:06:22 72° N 02:09:45 10° E visible
13 May -3.9 03:39:51 10° WNW 03:43:14 71° SSW 03:46:36 10° ESE visible
14 May -3.7 01:18:38 70° NW 01:18:53 76° N 01:22:16 10° E visible
14 May -3.9 02:52:25 10° WNW 02:55:48 87° SSW 02:59:11 10° ESE visible
14 May -2.8 04:29:26 10° W 04:32:22 28° SSW 04:35:18 10° SSE visible
14 May -3.2 22:51:41 10° SW 22:54:47 34° SSE 22:57:53 10° E visible
15 May -3.8 00:28:02 10° W 00:31:26 84° N 00:34:49 10° ENE visible
15 May -3.7 02:04:58 10° W 02:08:21 81° N 02:11:44 10° E visible
15 May -3.3 03:41:52 10° W 03:45:02 39° SSW 03:48:13 10° SE visible
15 May -2.7 22:04:40 10° SSW 22:07:28 25° SE 22:10:17 10° E visible
15 May -3.9 23:40:37 10° WSW 23:43:59 82° SSE 23:47:22 10° ENE visible
16 May -3.6 01:17:30 10° W 01:20:53 74° N 01:24:16 10° E visible
16 May -3.7 02:54:22 10° WNW 02:57:40 53° SSW 03:00:59 10° SE visible
16 May -1.9 04:32:11 10° WSW 04:33:56 13° SW 04:35:40 10° S visible
16 May -3.9 22:53:13 10° WSW 22:56:34 65° SSE 22:59:54 10° ENE visible
17 May -3.6 00:30:01 10° W 00:33:24 72° N 00:36:47 10° E visible
17 May -3.9 02:06:54 10° WNW 02:10:16 71° SSW 02:13:38 10° ESE visible
17 May -2.4 03:44:10 10° W 03:46:41 20° SW 03:49:12 10° S visible
17 May -3.6 22:05:55 10° SW 22:09:10 48° SSE 22:12:26 10° E visible
17 May -3.6 23:42:33 10° W 23:45:56 76° N 23:49:18 10° E visible
18 May -3.9 01:19:27 10° WNW 01:22:50 87° SSW 01:22:56 84° SE visible
18 May -3.8 22:55:05 10° W 22:58:27 84° NNW 23:01:51 10° ENE visible
19 May -3.8 00:32:00 10° W 00:35:23 81° N 00:36:31 39° E visible
19 May -1.4 02:08:54 10° W 02:09:26 14° W 02:09:26 14° W visible
19 May -3.8 22:07:38 10° WSW 22:11:00 82° SSE 22:14:23 10° ENE visible
19 May -3.6 23:44:32 10° W 23:47:55 74° N 23:50:21 17° E visible
20 May -2.5 01:21:24 10° WNW 01:23:16 29° W 01:23:16 29° W visible
20 May -3.5 22:57:03 10° W 23:00:25 72° N 23:03:48 10° E visible
21 May -3.9 00:33:55 10° WNW 00:37:12 70° SW 00:37:12 70° SW visible
21 May -3.6 22:09:34 10° W 22:12:57 76° N 22:16:19 10° E visible
21 May -3.9 23:46:28 10° WNW 23:49:51 87° S 23:51:10 34° ESE visible
22 May -1.4 01:23:29 10° W 01:24:06 14° W 01:24:06 14° W visible
22 May -3.7 22:59:00 10° W 23:02:23 81° N 23:05:11 14° E visible
